Location: Broekland
(52.3610°N, 6.2005°E)
Time: 11:02:58
(UTC+00:00)

USA 234 - Pass Details

Date: 19 May 2025
Orbit: 1097 x 1111 km, 123.0° (Epoch: 19 June)

Event Time Altitude Azimuth Distance (km) Brightness Sun altitude
Rises 20:47:37 0° 59° (ENE) 3,926 6.1 -9.4°
Reaches altitude 10° 20:50:09 10° 63° (ENE) 2,967 5.4 -9.6°
Maximum altitude 20:56:38 61° 143° (SE) 1,244 3.3 -10.2°
Drops below altitude 10° 21:03:07 10° 224° (SW) 2,966 5.4 -10.8°
Sets 21:05:38 0° 227° (SW) 3,923 6.1 -11.0°
